Location: Rowland
(34.5359°N, 79.2929°W)
Time: 16:40:12
(UTC+00:00)

S-56A Canister/Altair - Pass Details

Date: 10 October 2022
Orbit: 638 x 2494 km, 38.9° (Epoch: 06 December)

Event Time Altitude Azimuth Distance (km) Brightness Sun altitude
Rises 01:10:34 0° 201° (SSW) 5,937 12.1 -29.6°
Reaches altitude 10° 01:15:00 10° 191° (SSW) 5,060 11.6 -30.4°
Enters shadow 01:23:58 29° 156° (SSE) 3,789 10.6 -32.2°
